TimeMST,TemperatureF,Dew PointF,Humidity,Sea Level PressureIn,VisibilityMPH,Wind Direction,Wind SpeedMPH,Gust SpeedMPH,PrecipitationIn,Events,Conditions,WindDirDegrees,DateUTC
12:53 AM,19.0,14.0,81,30.29,10.0,SSE,5.8,-,N/A,,Clear,150,2013-12-28 07:53:00
1:53 AM,19.0,14.0,81,30.27,10.0,SE,4.6,-,N/A,,Clear,140,2013-12-28 08:53:00
2:53 AM,19.0,14.0,81,30.27,10.0,SSE,4.6,-,N/A,,Clear,150,2013-12-28 09:53:00
3:53 AM,14.0,10.9,88,30.26,10.0,SSE,6.9,-,N/A,,Clear,160,2013-12-28 10:53:00
4:53 AM,17.1,12.0,81,30.23,10.0,SE,4.6,-,N/A,,Clear,130,2013-12-28 11:53:00
5:53 AM,16.0,12.0,84,30.25,10.0,East,3.5,-,N/A,,Clear,90,2013-12-28 12:53:00
6:53 AM,15.1,10.9,84,30.25,10.0,ESE,5.8,-,N/A,,Clear,110,2013-12-28 13:53:00
7:53 AM,15.1,10.0,80,30.26,10.0,Calm,Calm,-,N/A,,Clear,0,2013-12-28 14:53:00
8:53 AM,18.0,12.9,81,30.23,10.0,SE,5.8,-,N/A,,Clear,140,2013-12-28 15:53:00
9:53 AM,24.1,17.1,75,30.21,10.0,Calm,Calm,-,N/A,,Clear,0,2013-12-28 16:53:00
10:53 AM,30.0,18.0,61,30.17,10.0,Calm,Calm,-,N/A,,Clear,0,2013-12-28 17:53:00
11:53 AM,32.0,19.9,61,30.13,10.0,NNW,4.6,-,N/A,,Clear,340,2013-12-28 18:53:00
12:53 PM,30.9,19.0,61,30.10,10.0,NNW,4.6,-,N/A,,Clear,330,2013-12-28 19:53:00
1:53 PM,32.0,21.0,64,30.08,10.0,NW,4.6,-,N/A,,Clear,310,2013-12-28 20:53:00
2:53 PM,33.1,19.9,59,30.08,10.0,East,3.5,-,N/A,,Clear,80,2013-12-28 21:53:00
3:53 PM,32.0,18.0,56,30.09,10.0,ENE,3.5,-,N/A,,Partly Cloudy,70,2013-12-28 22:53:00
4:53 PM,30.0,19.9,66,30.08,10.0,Calm,Calm,-,N/A,,Clear,0,2013-12-28 23:53:00
5:53 PM,27.0,19.9,75,30.10,10.0,ESE,3.5,-,N/A,,Clear,110,2013-12-29 00:53:00
6:53 PM,26.1,19.9,78,30.13,10.0,Calm,Calm,-,N/A,,Clear,0,2013-12-29 01:53:00
7:53 PM,24.1,19.0,81,30.14,10.0,Calm,Calm,-,N/A,,Partly Cloudy,0,2013-12-29 02:53:00
8:53 PM,21.0,17.1,85,30.12,6.0,SSE,8.1,-,N/A,,Clear,150,2013-12-29 03:53:00
9:53 PM,19.9,16.0,85,30.13,8.0,Calm,Calm,-,N/A,,Clear,0,2013-12-29 04:53:00
10:53 PM,18.0,15.1,88,30.14,8.0,ESE,4.6,-,N/A,,Clear,110,2013-12-29 05:53:00
11:53 PM,16.0,12.9,88,30.16,7.0,SSE,6.9,-,N/A,,Mostly Cloudy,150,2013-12-29 06:53:00